Location: *
(38.9800°N, 16.0500°E)
Time: 05:42:40
(UTC+00:00)

USA 267 - Pass Details

Date: 07 April 2020
Orbit: 1101 x 1107 km, 123.0° (Epoch: 05 April)

Event Time Altitude Azimuth Distance (km) Brightness Sun altitude
Rises 02:31:36 0° 42° (NE) 3,922 7.4 -22.6°
Reaches altitude 10° 02:34:10 10° 37° (NE) 2,962 6.5 -22.1°
Maximum altitude 02:40:22 48° 326° (NW) 1,415 3.7 -21.1°
Enters shadow 02:43:17 30° 272° (W) 1,872 4.0 -20.6°
